TimeMDT,TemperatureF,Dew PointF,Humidity,Sea Level PressureIn,VisibilityMPH,Wind Direction,Wind SpeedMPH,Gust SpeedMPH,PrecipitationIn,Events,Conditions,WindDirDegrees,DateUTC
12:55 AM,57.9,48.0,70,29.96,10.0,ESE,3.5,-,N/A,,Clear,120,2013-09-03 06:55:00
1:55 AM,57.0,46.9,69,29.96,10.0,Calm,Calm,-,N/A,,Clear,0,2013-09-03 07:55:00
2:55 AM,55.0,46.9,74,29.95,10.0,SSE,4.6,-,N/A,,Clear,150,2013-09-03 08:55:00
3:55 AM,53.1,46.9,80,29.95,10.0,SSE,3.5,-,N/A,,Clear,150,2013-09-03 09:55:00
4:55 AM,53.1,46.9,80,29.95,10.0,Calm,Calm,-,N/A,,Clear,0,2013-09-03 10:55:00
5:55 AM,50.0,46.0,86,29.97,10.0,NNW,3.5,-,N/A,,Clear,340,2013-09-03 11:55:00
6:55 AM,51.1,46.9,86,29.99,10.0,North,3.5,-,N/A,,Clear,360,2013-09-03 12:55:00
7:55 AM,61.0,48.9,64,29.98,10.0,Calm,Calm,-,N/A,,Clear,0,2013-09-03 13:55:00
8:55 AM,68.0,53.1,59,29.97,10.0,SSE,3.5,-,N/A,,Clear,150,2013-09-03 14:55:00
9:55 AM,77.0,55.9,48,29.95,10.0,SSW,3.5,-,N/A,,Clear,200,2013-09-03 15:55:00
10:55 AM,82.0,55.9,41,29.95,10.0,Calm,Calm,-,N/A,,Clear,0,2013-09-03 16:55:00
11:55 AM,87.1,53.1,31,29.94,10.0,ESE,11.5,-,N/A,,Clear,120,2013-09-03 17:55:00
12:55 PM,89.1,51.1,27,29.93,10.0,South,8.1,16.1,N/A,,Clear,170,2013-09-03 18:55:00
1:55 PM,91.0,50.0,24,29.91,10.0,ESE,8.1,-,N/A,,Clear,110,2013-09-03 19:55:00
2:55 PM,91.9,48.9,23,29.90,10.0,SSE,13.8,18.4,N/A,,Clear,150,2013-09-03 20:55:00
3:55 PM,91.9,46.9,21,29.90,10.0,ESE,9.2,17.3,N/A,Thunderstorm,Thunderstorm,120,2013-09-03 21:55:00
4:24 PM,84.2,51.8,33,30.14,10.0,SSW,12.7,18.4,0.00,Rain,Light Rain,210,2013-09-03 22:24:00
4:55 PM,88.0,48.0,25,29.91,10.0,South,9.2,-,0.00,,Mostly Cloudy,180,2013-09-03 22:55:00
5:55 PM,86.0,46.9,26,29.93,10.0,SSE,8.1,-,N/A,,Clear,160,2013-09-03 23:55:00
6:55 PM,80.1,50.0,35,29.94,10.0,SSE,4.6,-,N/A,,Clear,160,2013-09-04 00:55:00
7:55 PM,73.9,50.0,43,29.94,10.0,SE,3.5,-,N/A,,Clear,140,2013-09-04 01:55:00
8:55 PM,64.9,51.1,61,29.96,10.0,Calm,Calm,-,N/A,,Clear,0,2013-09-04 02:55:00
9:55 PM,63.0,50.0,63,29.96,10.0,Calm,Calm,-,N/A,,Clear,0,2013-09-04 03:55:00
10:55 PM,68.0,52.0,56,29.94,10.0,Calm,Calm,-,N/A,,Clear,0,2013-09-04 04:55:00
11:55 PM,63.0,51.1,65,29.95,10.0,Calm,Calm,-,N/A,,Clear,0,2013-09-04 05:55:00